TimePST,TemperatureF,Dew PointF,Humidity,Sea Level PressureIn,VisibilityMPH,Wind Direction,Wind SpeedMPH,Gust SpeedMPH,PrecipitationIn,Events,Conditions,WindDirDegrees,DateUTC
12:12 AM,44.6,44.6,100,30.05,0.5,Calm,Calm,-,N/A,Fog,Fog,0,2012-02-10 08:12:00
12:13 AM,44.6,44.6,100,30.05,0.5,Calm,Calm,-,N/A,Fog,Fog,0,2012-02-10 08:13:00
12:23 AM,44.6,44.6,100,30.04,0.5,Calm,Calm,-,N/A,Fog,Fog,0,2012-02-10 08:23:00
12:25 AM,44.6,44.6,100,30.04,0.5,Calm,Calm,-,N/A,Fog,Fog,0,2012-02-10 08:25:00
12:26 AM,44.6,44.6,100,30.04,0.8,Calm,Calm,-,N/A,,Mostly Cloudy,0,2012-02-10 08:26:00
12:27 AM,44.6,44.6,100,30.04,0.8,Calm,Calm,-,N/A,,Mostly Cloudy,0,2012-02-10 08:27:00
12:28 AM,44.6,44.6,100,30.04,1.0,Calm,Calm,-,N/A,,Mostly Cloudy,0,2012-02-10 08:28:00
12:30 AM,44.6,44.6,100,30.04,1.2,Calm,Calm,-,N/A,,Mostly Cloudy,0,2012-02-10 08:30:00
12:35 AM,44.6,44.6,100,30.04,1.0,Calm,Calm,-,N/A,,Partly Cloudy,0,2012-02-10 08:35:00
12:37 AM,44.6,44.6,100,30.03,0.8,Calm,Calm,-,N/A,,Partly Cloudy,0,2012-02-10 08:37:00
12:38 AM,44.6,44.6,100,30.03,0.8,Calm,Calm,-,N/A,,Partly Cloudy,0,2012-02-10 08:38:00
12:43 AM,44.6,44.6,100,30.03,0.5,Calm,Calm,-,N/A,Fog,Fog,0,2012-02-10 08:43:00
12:45 AM,44.6,44.6,100,30.03,0.8,Calm,Calm,-,N/A,,Partly Cloudy,0,2012-02-10 08:45:00
12:49 AM,44.6,44.6,100,30.03,0.8,Calm,Calm,-,N/A,,Partly Cloudy,0,2012-02-10 08:49:00
12:51 AM,44.6,44.6,100,30.03,1.0,Calm,Calm,-,N/A,,Partly Cloudy,0,2012-02-10 08:51:00
12:55 AM,44.2,44.2,100,30.03,1.2,Calm,Calm,-,N/A,,Clear,0,2012-02-10 08:55:00
12:58 AM,44.6,44.6,100,30.03,1.0,Calm,Calm,-,N/A,,Mist,0,2012-02-10 08:58:00
12:59 AM,44.6,44.6,100,30.03,1.0,Calm,Calm,-,N/A,,Mist,0,2012-02-10 08:59:00
1:01 AM,44.6,44.6,100,30.03,0.8,Calm,Calm,-,N/A,,Mist,0,2012-02-10 09:01:00
1:06 AM,44.6,44.6,100,30.02,0.5,Calm,Calm,-,N/A,Fog,Fog,0,2012-02-10 09:06:00
1:07 AM,44.6,44.6,100,30.02,0.5,Calm,Calm,-,N/A,Fog,Fog,0,2012-02-10 09:07:00
1:09 AM,44.6,44.6,100,30.02,0.5,Calm,Calm,-,N/A,Fog,Fog,0,2012-02-10 09:09:00
1:14 AM,44.6,44.6,100,30.02,0.5,NNW,3.5,-,N/A,Fog,Fog,330,2012-02-10 09:14:00
1:16 AM,44.6,44.6,100,30.01,0.5,Calm,Calm,-,N/A,Fog,Fog,0,2012-02-10 09:16:00
1:29 AM,44.6,44.6,100,30.02,0.5,Calm,Calm,-,N/A,Fog,Fog,0,2012-02-10 09:29:00
1:30 AM,44.6,44.6,100,30.01,0.5,Calm,Calm,-,N/A,Fog,Fog,0,2012-02-10 09:30:00
1:31 AM,44.6,44.6,100,30.01,0.5,Calm,Calm,-,N/A,Fog,Fog,0,2012-02-10 09:31:00
1:32 AM,44.6,44.6,100,30.01,0.5,Calm,Calm,-,N/A,Fog,Fog,0,2012-02-10 09:32:00
1:36 AM,44.6,44.6,100,30.01,0.8,Calm,Calm,-,N/A,,Mist,0,2012-02-10 09:36:00
1:45 AM,44.6,44.6,100,30.01,0.8,Calm,Calm,-,N/A,,Mist,0,2012-02-10 09:45:00
1:46 AM,44.6,44.6,100,30.01,0.5,Calm,Calm,-,N/A,Fog,Fog,0,2012-02-10 09:46:00
1:51 AM,44.6,44.6,100,30.01,0.5,Calm,Calm,-,N/A,Fog,Fog,0,2012-02-10 09:51:00
1:54 AM,44.6,44.6,100,30.01,0.5,Calm,Calm,-,N/A,Fog,Fog,0,2012-02-10 09:54:00
1:55 AM,44.4,44.4,100,30.01,0.5,Calm,Calm,-,N/A,Fog,Fog,0,2012-02-10 09:55:00
2:05 AM,44.6,44.6,100,30.01,0.5,Calm,Calm,-,N/A,Fog,Fog,0,2012-02-10 10:05:00
2:07 AM,44.6,44.6,100,30.01,0.5,Calm,Calm,-,N/A,Fog,Fog,0,2012-02-10 10:07:00
2:16 AM,44.6,44.6,100,30.01,0.8,WSW,3.5,-,N/A,,Mist,240,2012-02-10 10:16:00
2:17 AM,44.6,44.6,100,30.02,0.8,Calm,Calm,-,N/A,,Mist,0,2012-02-10 10:17:00
2:18 AM,44.6,44.6,100,30.02,0.8,WSW,3.5,-,N/A,,Mist,250,2012-02-10 10:18:00
2:21 AM,44.6,44.6,100,30.02,1.0,West,5.8,-,N/A,,Mist,260,2012-02-10 10:21:00
2:24 AM,44.6,44.6,100,30.02,1.2,WSW,4.6,-,N/A,,Scattered Clouds,250,2012-02-10 10:24:00
2:27 AM,44.6,44.6,100,30.02,1.8,WSW,5.8,-,N/A,,Scattered Clouds,240,2012-02-10 10:27:00
2:31 AM,44.6,44.6,100,30.02,1.8,WSW,5.8,-,N/A,,Mostly Cloudy,240,2012-02-10 10:31:00
2:33 AM,44.6,44.6,100,30.02,2.0,Variable,4.6,-,N/A,,Mostly Cloudy,0,2012-02-10 10:33:00
2:35 AM,44.6,44.6,100,30.02,2.5,WSW,4.6,-,N/A,,Mostly Cloudy,240,2012-02-10 10:35:00
2:39 AM,44.6,44.6,100,30.02,3.0,WSW,4.6,-,N/A,,Mostly Cloudy,240,2012-02-10 10:39:00
2:54 AM,44.6,44.6,100,30.03,2.5,SSW,6.9,-,N/A,,Overcast,210,2012-02-10 10:54:00
2:55 AM,44.2,44.2,100,30.03,2.5,SSW,6.9,-,N/A,,Overcast,210,2012-02-10 10:55:00
3:04 AM,44.6,44.6,100,30.02,3.0,Calm,Calm,-,N/A,,Overcast,0,2012-02-10 11:04:00
3:29 AM,44.6,44.6,100,30.00,2.5,Calm,Calm,-,N/A,Rain,Light Rain,0,2012-02-10 11:29:00
3:31 AM,44.6,44.6,100,30.00,2.0,Calm,Calm,-,N/A,Rain,Light Rain,0,2012-02-10 11:31:00
3:34 AM,44.6,44.6,100,30.00,1.8,NE,4.6,-,N/A,Rain,Light Rain,50,2012-02-10 11:34:00
3:35 AM,44.6,44.6,100,30.01,1.8,NE,5.8,-,N/A,Rain,Light Rain,40,2012-02-10 11:35:00
3:36 AM,44.6,44.6,100,30.00,2.0,NNE,6.9,-,N/A,Rain,Light Rain,30,2012-02-10 11:36:00
3:37 AM,44.6,44.6,100,30.00,2.0,NNE,8.1,-,N/A,Rain,Light Rain,30,2012-02-10 11:37:00
3:39 AM,44.6,44.6,100,29.99,2.5,NE,6.9,-,N/A,Rain,Light Rain,40,2012-02-10 11:39:00
3:42 AM,44.6,44.6,100,29.99,3.0,Variable,3.5,-,N/A,Rain,Light Rain,0,2012-02-10 11:42:00
3:55 AM,44.4,44.4,100,29.98,9.0,East,3.5,-,0.02,Rain,Light Rain,90,2012-02-10 11:55:00
3:59 AM,44.6,44.6,100,29.98,10.0,Calm,Calm,-,N/A,Rain,Light Rain,0,2012-02-10 11:59:00
4:02 AM,44.6,44.6,100,29.98,10.0,Calm,Calm,-,N/A,,Scattered Clouds,0,2012-02-10 12:02:00
4:21 AM,44.6,44.6,100,30.01,10.0,SSW,16.1,-,N/A,,Partly Cloudy,200,2012-02-10 12:21:00
4:38 AM,44.6,44.6,100,30.03,10.0,South,5.8,-,N/A,,Scattered Clouds,180,2012-02-10 12:38:00
4:47 AM,44.6,44.6,100,30.04,10.0,South,3.5,-,N/A,Rain,Light Rain,180,2012-02-10 12:47:00
4:51 AM,44.6,44.6,100,30.03,10.0,SSW,6.9,-,N/A,Rain,Light Rain,200,2012-02-10 12:51:00
4:53 AM,44.6,44.6,100,30.03,10.0,SSW,9.2,-,N/A,Rain,Light Rain,200,2012-02-10 12:53:00
4:55 AM,44.6,44.6,100,30.04,10.0,South,4.6,-,0.00,Rain,Light Rain,180,2012-02-10 12:55:00
5:04 AM,44.6,44.6,100,30.03,10.0,Calm,Calm,-,N/A,,Mostly Cloudy,0,2012-02-10 13:04:00
5:16 AM,44.6,44.6,100,30.02,10.0,Calm,Calm,-,N/A,,Light Drizzle,0,2012-02-10 13:16:00
5:20 AM,44.6,44.6,100,30.02,10.0,Calm,Calm,-,N/A,Rain,Light Rain,0,2012-02-10 13:20:00
5:55 AM,44.4,44.4,100,30.00,10.0,NE,4.6,-,0.00,Rain,Light Rain,40,2012-02-10 13:55:00
6:20 AM,44.6,44.6,100,29.99,10.0,SSW,8.1,-,N/A,Rain,Light Rain,210,2012-02-10 14:20:00
6:24 AM,44.6,44.6,100,30.00,10.0,Calm,Calm,-,N/A,,Overcast,0,2012-02-10 14:24:00
6:38 AM,44.6,44.6,100,30.01,10.0,SSW,9.2,-,N/A,Rain,Light Rain,210,2012-02-10 14:38:00
6:55 AM,44.6,44.6,100,30.01,10.0,SW,4.6,-,0.01,Rain,Light Rain,230,2012-02-10 14:55:00
7:13 AM,44.6,44.6,100,30.01,10.0,SW,3.5,-,N/A,,Overcast,220,2012-02-10 15:13:00
7:15 AM,44.6,44.6,100,30.01,10.0,Calm,Calm,-,N/A,,Overcast,0,2012-02-10 15:15:00
7:18 AM,44.6,44.6,100,30.01,10.0,Calm,Calm,-,N/A,Rain,Light Rain,0,2012-02-10 15:18:00
7:26 AM,44.6,44.6,100,30.00,10.0,Calm,Calm,-,N/A,Rain,Light Rain,0,2012-02-10 15:26:00
7:32 AM,44.6,44.6,100,30.00,10.0,NE,4.6,-,N/A,,Light Drizzle,40,2012-02-10 15:32:00
7:40 AM,44.6,44.6,100,30.00,10.0,NNE,3.5,-,N/A,,Overcast,30,2012-02-10 15:40:00
7:53 AM,44.6,44.6,100,29.99,9.0,NNE,9.2,-,N/A,Rain,Light Rain,30,2012-02-10 15:53:00
7:55 AM,44.4,44.4,100,30.01,9.0,Variable,5.8,-,0.01,Rain,Light Rain,0,2012-02-10 15:55:00
8:02 AM,44.6,44.6,100,30.02,7.0,Variable,5.8,-,N/A,Rain,Light Rain,0,2012-02-10 16:02:00
8:22 AM,44.6,44.6,100,30.00,3.0,ENE,5.8,-,N/A,Rain,Light Rain,70,2012-02-10 16:22:00
8:24 AM,44.6,44.6,100,30.00,4.0,ENE,5.8,-,N/A,Rain,Light Rain,70,2012-02-10 16:24:00
8:26 AM,44.6,44.6,100,30.00,5.0,ENE,3.5,-,N/A,Rain,Light Rain,60,2012-02-10 16:26:00
8:31 AM,44.6,44.6,100,30.00,10.0,ENE,3.5,-,N/A,,Overcast,70,2012-02-10 16:31:00
8:43 AM,44.6,44.6,100,30.00,9.0,Calm,Calm,-,N/A,,Overcast,0,2012-02-10 16:43:00
8:55 AM,45.3,45.3,100,30.00,10.0,ESE,5.8,-,0.02,,Overcast,120,2012-02-10 16:55:00
9:22 AM,46.4,46.4,100,29.99,10.0,Calm,Calm,-,N/A,Rain,Light Rain,0,2012-02-10 17:22:00
9:45 AM,46.4,46.4,100,29.99,10.0,East,3.5,-,N/A,,Overcast,80,2012-02-10 17:45:00
9:55 AM,47.7,47.7,100,29.99,10.0,East,4.6,-,0.00,,Overcast,90,2012-02-10 17:55:00
10:06 AM,48.2,48.2,100,29.99,10.0,East,8.1,-,N/A,,Overcast,80,2012-02-10 18:06:00
10:27 AM,50.0,50.0,100,29.99,10.0,East,4.6,-,N/A,Rain,Light Rain,100,2012-02-10 18:27:00
10:55 AM,50.0,50.0,100,29.98,10.0,Calm,Calm,-,0.01,Rain,Light Rain,0,2012-02-10 18:55:00
11:24 AM,51.8,51.8,100,29.97,10.0,East,3.5,-,N/A,,Overcast,90,2012-02-10 19:24:00
11:39 AM,51.8,51.8,100,29.97,10.0,East,3.5,-,N/A,Rain,Light Rain,90,2012-02-10 19:39:00
11:55 AM,52.3,50.9,95,29.96,10.0,Calm,Calm,-,0.00,Rain,Light Rain,0,2012-02-10 19:55:00
11:59 AM,51.8,51.8,100,29.96,10.0,Calm,Calm,-,N/A,,Overcast,0,2012-02-10 19:59:00
12:05 PM,51.8,51.8,100,29.96,10.0,NE,3.5,-,N/A,Rain,Light Rain,50,2012-02-10 20:05:00
12:27 PM,53.6,51.8,94,29.95,10.0,NE,3.5,-,N/A,,Overcast,40,2012-02-10 20:27:00
12:55 PM,53.2,52.0,95,29.95,10.0,Calm,Calm,-,0.00,,Overcast,0,2012-02-10 20:55:00
1:55 PM,54.9,53.1,94,29.94,10.0,East,3.5,-,N/A,,Overcast,100,2012-02-10 21:55:00
2:55 PM,57.4,50.0,76,29.93,10.0,SSE,5.8,-,N/A,,Overcast,160,2012-02-10 22:55:00
3:55 PM,55.4,52.7,91,29.94,10.0,WSW,3.5,-,N/A,,Overcast,240,2012-02-10 23:55:00
4:55 PM,54.9,50.5,85,29.95,10.0,SW,6.9,-,N/A,,Overcast,220,2012-02-11 00:55:00
5:55 PM,53.6,49.5,86,29.96,10.0,SW,10.4,-,N/A,,Overcast,230,2012-02-11 01:55:00
6:49 PM,50.0,48.2,94,29.99,10.0,WSW,12.7,-,N/A,Rain,Light Rain,240,2012-02-11 02:49:00
6:54 PM,50.0,48.2,94,29.99,10.0,WSW,11.5,-,N/A,Rain,Light Rain,240,2012-02-11 02:54:00
6:55 PM,49.3,48.2,96,29.99,10.0,WSW,11.5,-,0.00,Rain,Light Rain,240,2012-02-11 02:55:00
7:16 PM,48.2,48.2,100,30.00,7.0,SW,6.9,-,N/A,,Overcast,220,2012-02-11 03:16:00
7:18 PM,48.2,48.2,100,30.00,7.0,SW,8.1,-,N/A,Rain,Light Rain,220,2012-02-11 03:18:00
7:55 PM,48.2,48.0,99,30.01,10.0,SW,3.5,-,0.03,Rain,Light Rain,230,2012-02-11 03:55:00
8:05 PM,48.2,48.2,100,30.02,10.0,West,9.2,-,N/A,Rain,Light Rain,280,2012-02-11 04:05:00
8:06 PM,48.2,48.2,100,30.02,10.0,West,8.1,-,N/A,Rain,Light Rain,280,2012-02-11 04:06:00
8:07 PM,48.2,48.2,100,30.02,10.0,West,6.9,-,N/A,Rain,Light Rain,280,2012-02-11 04:07:00
8:12 PM,48.2,48.2,100,30.02,10.0,West,6.9,-,N/A,Rain,Light Rain,280,2012-02-11 04:12:00
8:53 PM,46.4,46.4,100,30.03,10.0,WSW,4.6,-,N/A,Rain,Light Rain,250,2012-02-11 04:53:00
8:55 PM,46.9,46.8,99,30.03,10.0,WSW,3.5,-,0.01,Rain,Light Rain,250,2012-02-11 04:55:00
8:58 PM,46.4,46.4,100,30.03,10.0,WSW,3.5,-,N/A,Rain,Light Rain,240,2012-02-11 04:58:00
9:03 PM,46.4,46.4,100,30.03,10.0,SW,4.6,-,N/A,Rain,Light Rain,220,2012-02-11 05:03:00
9:28 PM,46.4,46.4,100,30.04,10.0,SSW,5.8,-,N/A,,Overcast,200,2012-02-11 05:28:00
9:55 PM,46.8,46.4,99,30.05,10.0,SSW,6.9,-,0.01,,Overcast,200,2012-02-11 05:55:00
9:57 PM,46.4,46.4,100,30.05,10.0,SSW,6.9,-,N/A,Rain,Light Rain,200,2012-02-11 05:57:00
10:10 PM,46.4,46.4,100,30.05,10.0,SSW,8.1,-,N/A,,Overcast,210,2012-02-11 06:10:00
10:17 PM,46.4,46.4,100,30.05,10.0,SSW,6.9,-,N/A,Rain,Light Rain,210,2012-02-11 06:17:00
10:31 PM,46.4,46.4,100,30.05,10.0,South,3.5,-,N/A,Rain,Light Rain,180,2012-02-11 06:31:00
10:35 PM,46.4,46.4,100,30.05,10.0,South,4.6,-,N/A,Rain,Light Rain,170,2012-02-11 06:35:00
10:39 PM,46.4,44.6,93,30.05,10.0,South,4.6,-,N/A,,Overcast,180,2012-02-11 06:39:00
10:43 PM,46.4,44.6,93,30.06,10.0,South,4.6,-,N/A,,Overcast,180,2012-02-11 06:43:00
10:55 PM,45.1,44.8,99,30.06,10.0,SSE,3.5,-,0.00,,Overcast,160,2012-02-11 06:55:00
11:55 PM,44.4,44.1,99,30.08,10.0,Calm,Calm,-,N/A,,Overcast,0,2012-02-11 07:55:00